Погода в Каобанге

Вьетнам     22°39′43″N   106°16′06″E
темп.,
°C
ветер,
м/с
пор.,
м/с
влажн.,
%
обл.,
%
осадки,
мм/ч
давл.,
гПа
погр.,
м
25 февраля, чт
чт2501:00+17юв249795 0.0 1009134
04:00+17юв2493100 0.0 1007237
07:00+18ююв3889100 0.0 1009509
10:00+19юв2490100 0.1 1010316
13:00+23ю477097 0.3 1007929
16:00+24ю466793 0.2 1004939
19:00+19ююв249149 0.2 1006107
22:00+18ю119794 0.0 100725
26 февраля, пт
пт2601:00+17ю019979 0.0 100723
04:00+17ю119865 0.0 100668
07:00+18ю119682 0.0 1008106
10:00+22ююв226985 0.1 1010756
13:00+23юв336990 0.1 1008837
16:00+23юв346871 0.0 1007926
19:00+20в138261 0.1 100977
22:00+18в249521 0.0 1012207
27 февраля, сб
сб2701:00+18вюв248554 0.0 1011409
04:00+17вюв2485100 0.1 1011432
07:00+16вюв138499 0.2 1013389
10:00+17вюв1381100 0.1 1014463
13:00+19юв357398 0.3 1012569
16:00+17юв258196 0.1 1010408
19:00+16юв258390 0.1 1012336
22:00+16вюв128481 0.0 1013175
28 февраля, вс
вс2801:00+16юв139190 0.5 1013168
04:00+16юв139598 1.0 1011163
07:00+16юв379699 1.9 1012354
10:00+18ююв269189 0.3 1014450
13:00+22ю497790 1.4 10111082
16:00+22ю4108047 1.4 1009879
19:00+19ююв3109357 1.6 1010692
22:00+18ююв289488 0.1 1012523
1 марта, пн
пн101:00+18ююв299494 0.2 1012553
04:00+18ююв3896100 0.3 1011535
07:00+18ююв3996100 0.4 1013593
10:00+21ююв388396 0.2 1015799
13:00+24ю476779 0.4 10121122
16:00+24ю466961 0.1 1010978
19:00+20ююв249136 0.1 1012135
22:00+18вюв11981 0.0 101627